"Pseudo-MPEC" for P21Wh5O

Created 2024 Jul 11 20:22:06 UT using Find_Orb

Click here for an explanation of pseudo-MPECs

 
 Astrometry: 
     P21Wh5O* C2024 07 06ce.EplTlVAstrometry+BxEiN0Mx:-Sm,h3,I)Cx9`=!+4m9Z$x#F52
     P21Wh5O  C2024 07 06Cl+.s]H6p2%]s(fpZYVw[;e(UF,SIcQon_B+-HBW4!;a][1q;AnPF52
     P21Wh5O  C2024 07 0674XFZ?S]\*R*iN5QPW.d2#I_k@3i*J#bp][I@=.LGQ](Pnkn[nN*F52
     P21Wh5O  C2024 07 06-@K--:7W=T'Ti*N-8.DTEL*n=ROf'3s!8[.,Le#ZFWJ*+1w_?A9?F52
     P21Wh5O  C2024 07 06mw3e*+1)$2B9t(f9,F_=redacted;Ji#[@!a0@U--t7#Y,7hNQb1F51
     P21Wh5O  C2024 07 06q!qq:4B^k#$.XfRu%_Iqb(Mo?wpXbA4Y9Nn[f98kGqW?I,EcUp%]F51
     P21Wh5O 3C2024 07 08CNV9MrhH`Ha4pv!c5F1,#*/c)LyRUw16,8.OanwH]GclickE804^T14
     P21Wh5O 3C2024 07 08u@;Z)$cVv=here.Q:hPuU9$aUx=jfQfor(KCvU!91QVs(JaEU6THT14
     P21Wh5O 3C2024 07 08:pcohbK,,l]5./2^4explanationwOe.HHXcGg!5nKyd9;iE![]6T14

Station data:
(F51) Pan-STARRS 1, Haleakala  (N20.707234 W156.255910)  US/Hawaii.
   Observers J. Bulger, T. Lowe, A. Schultz, M. Willman. Measurers K.
   Chambers, S. Chastel, T. de Boer, L. Denneau, J. Fairlamb, H. Flewelling,
   M. Huber, C.-C. Lin, E. Magnier, Y. Ramanjooloo, R. Wainscoat, R. Weryk.
   1.8-m Ritchey-Chrétien + CCD.
(F52) Pan-STARRS 2, Haleakala  (N20.707382 W156.255910)  US/Hawaii.
   Observers J. Bulger, T. Dukes, T. Lowe, A. Schultz, M. Willman. Measurers
   K. Chambers, S. Chastel, T. de Boer, L. Denneau, J. Fairlamb, H.
   Flewelling, M. Huber, C.-C. Lin, E. Magnier, Y. Ramanjooloo, R. Wainscoat,
   R. Weryk. 1.8-m Ritchey-Chrétien + CCD.
(T14) Mauna Kea-UH/Tholen NEO Follow-Up (CFHT)  (N19.825252 W155.468876)
   US/Hawaii.  Observer R. Weryk. 3.6-m Canada-France-Hawaii Telescope.

Orbital elements:  P21Wh5O
   Perihelion 2024 Jul 1.16362 +/- 85.6 TT =  3:55:37 (JD 2460492.66362)
Epoch 2024 Jul  8.0 TT = JDT 2460499.5   Earth MOID: 0.7011      AutoNEOCP
M   2.78228068 +/- 34               (J2000 ecliptic)
n   0.40698174 +/- 0.0221           Peri.  185.47603 +/- 38
a   1.80337520 +/- 0.0654           Node   102.25502 +/- 0.43
e   0.0476457 +/- 0.0173            Incl.   28.07948 +/- 1.7
P   2.42/884.54d           H 20.99  G  0.15   U 10.2
q 1.71745208 +/- 0.0348    Q 1.88929831 +/- 0.0984
From 9 observations 2024 July 6-8; mean residual 0".09
Residuals in arcseconds: 
240706 F52  .09+  .09+    240706 F52  .07-  .18-    240708 T14  .01+  .04+    
240706 F52  .02-  .02-    240706 F51  .13-  .02-    240708 T14  .08-  .12-    
240706 F52  .03-  .05+    240706 F51  .16+  .06+    240708 T14  .07+  .07+    

Ephemerides (geocentric):
Date (UTC) HH   RA             Dec           delta  r     elong  mag " sig PA
---- --------  ------------   ------------  ------ ------ -----  --- --------
2024 07 11 20  19 52 02.872   -32 50 43.15  .71089 1.7177 167.6 22.0 8.39  51
2024 07 11 21  19 51 59.341   -32 52 09.71  .71089 1.7177 167.6 22.0 8.57  51
2024 07 11 22  19 51 55.807   -32 53 36.25  .71090 1.7177 167.6 22.0 8.75  51
2024 07 11 23  19 51 52.270   -32 55 02.76  .71091 1.7177 167.6 22.0 8.93  51
2024 07 12 00  19 51 48.731   -32 56 29.23  .71091 1.7177 167.6 22.0 9.11  51
2024 07 12 01  19 51 45.189   -32 57 55.68  .71092 1.7177 167.6 22.0 9.30  51
2024 07 12 02  19 51 41.644   -32 59 22.10  .71093 1.7177 167.6 22.0 9.48  51
2024 07 12 03  19 51 38.096   -33 00 48.48  .71094 1.7177 167.6 22.0 9.67  51
2024 07 12 04  19 51 34.546   -33 02 14.84  .71095 1.7177 167.6 22.0 9.86  51
2024 07 12 05  19 51 30.992   -33 03 41.17  .71096 1.7177 167.6 22.0 10.0  51
2024 07 12 06  19 51 27.437   -33 05 07.46  .71097 1.7177 167.6 22.0 10.2  52
2024 07 12 07  19 51 23.878   -33 06 33.73  .71098 1.7177 167.6 22.0 10.4  52
2024 07 12 08  19 51 20.317   -33 07 59.96  .71099 1.7177 167.6 22.0 10.6  52
2024 07 12 09  19 51 16.753   -33 09 26.16  .71100 1.7178 167.6 22.0 10.8  52
2024 07 12 10  19 51 13.187   -33 10 52.33  .71102 1.7178 167.6 22.0 11.0  52
2024 07 12 11  19 51 09.618   -33 12 18.47  .71103 1.7178 167.6 22.0 11.2  52
2024 07 12 12  19 51 06.046   -33 13 44.58  .71104 1.7178 167.6 22.0 11.4  52
2024 07 12 13  19 51 02.471   -33 15 10.65  .71106 1.7178 167.6 22.0 11.6  52
2024 07 12 14  19 50 58.895   -33 16 36.70  .71107 1.7178 167.5 22.0 11.8  52
2024 07 12 15  19 50 55.315   -33 18 02.71  .71109 1.7178 167.5 22.0 12.0  52
2024 07 12 16  19 50 51.733   -33 19 28.68  .71110 1.7178 167.5 22.0 12.2  52
2024 07 12 17  19 50 48.148   -33 20 54.63  .71112 1.7178 167.5 22.0 12.4  52
2024 07 12 18  19 50 44.561   -33 22 20.54  .71113 1.7178 167.5 22.0 12.6  52
2024 07 12 19  19 50 40.971   -33 23 46.42  .71115 1.7178 167.5 22.0 12.8  52
2024 07 12 20  19 50 37.378   -33 25 12.27  .71117 1.7178 167.5 22.0 13.1  52
2024 07 12 21  19 50 33.783   -33 26 38.08  .71119 1.7178 167.5 22.0 13.3  52
2024 07 12 22  19 50 30.186   -33 28 03.86  .71120 1.7178 167.5 22.0 13.5  52
2024 07 12 23  19 50 26.586   -33 29 29.60  .71122 1.7178 167.5 22.0 13.7  52
2024 07 13 00  19 50 22.984   -33 30 55.31  .71124 1.7178 167.5 22.0 13.9  52
2024 07 13 01  19 50 19.379   -33 32 20.99  .71126 1.7178 167.5 22.0 14.1  52
2024 07 13 02  19 50 15.771   -33 33 46.63  .71128 1.7178 167.4 22.0 14.3  52
2024 07 13 03  19 50 12.161   -33 35 12.24  .71130 1.7178 167.4 22.0 14.6  52
2024 07 13 04  19 50 08.549   -33 36 37.81  .71132 1.7178 167.4 22.0 14.8  52
2024 07 13 05  19 50 04.934   -33 38 03.35  .71134 1.7178 167.4 22.0 15.0  52
2024 07 13 06  19 50 01.317   -33 39 28.85  .71137 1.7178 167.4 22.0 15.2  52
2024 07 13 07  19 49 57.697   -33 40 54.32  .71139 1.7178 167.4 22.0 15.4  52
2024 07 13 08  19 49 54.075   -33 42 19.75  .71141 1.7178 167.4 22.0 15.7  52
2024 07 13 09  19 49 50.450   -33 43 45.15  .71143 1.7178 167.4 22.0 15.9  52
2024 07 13 10  19 49 46.823   -33 45 10.51  .71146 1.7178 167.4 22.0 16.1  52
2024 07 13 11  19 49 43.194   -33 46 35.83  .71148 1.7178 167.3 22.0 16.3  53
2024 07 13 12  19 49 39.563   -33 48 01.12  .71151 1.7178 167.3 22.0 16.6  53
2024 07 13 13  19 49 35.928   -33 49 26.37  .71153 1.7178 167.3 22.0 16.8  53
2024 07 13 14  19 49 32.292   -33 50 51.58  .71156 1.7178 167.3 22.0 17.0  53
2024 07 13 15  19 49 28.653   -33 52 16.76  .71158 1.7178 167.3 22.0 17.3  53
2024 07 13 16  19 49 25.012   -33 53 41.90  .71161 1.7178 167.3 22.0 17.5  53
2024 07 13 17  19 49 21.369   -33 55 07.00  .71164 1.7178 167.3 22.0 17.7  53
2024 07 13 18  19 49 17.723   -33 56 32.07  .71166 1.7178 167.3 22.0 18.0  53
2024 07 13 19  19 49 14.075   -33 57 57.10  .71169 1.7178 167.2 22.0 18.2  53